Flag for United Kingdom Weather past 2 weeks in Stockport, England, United Kingdom

52 °F

Partly sunny.

Feels Like: 52 °F
Forecast: 53 / 65 °F
Wind: No wind

Location: Manchester Airport

Current Time: Oct 4, 2015 at 10:51:58 AM

Latest Report: Oct 4, 2015 at 10:20 AM

Visibility: 2 mi

Pressure: 29.95 "Hg

Humidity: 82%

Dew point: 46 °F

Location of StockportLocation

Historic Weather in Stockport — Graph


Stockport temperature yesterday

Maximum temperature yesterday: 50 °F (at 2:20 PM)
Minimum temperature yesterday: 37 °F (at 4:20 AM)
Average temperature yesterday: 45 °F

Past Weeks' High & Low Weather Summary

High64 °F (Sep 19, 3:20 PM)100% (Sep 19, 9:20 AM)30.66 "Hg (Sep 19, 9:20 AM)
Low37 °F (Oct 2, 5:50 AM)49% (Oct 1, 3:50 PM)29.53 "Hg (Sep 22, 3:20 AM)
Average53 °F83%30.21 "Hg
* Reported Sep 19 9:20 AM — Oct 4 9:20 AM, Stockport, Weather by CustomWeather, © 2015

Note: Actual official high and low records may vary slightly from our data, if they occured in-between our weather recording intervals... More about our weather records


Stockport weather history for previous 24 hours

Time TempWeatherWind HumidityBarometerVisibility
9:20 AM
Sun, Oct 4
50 °FOvercast.No wind82%29.95 "Hg2 mi
8:50 AM48 °FPartly sunny.2 mph94%29.95 "Hg2 mi
8:20 AM46 °FPartly sunny.2 mph93%29.95 "Hg2 mi
7:50 AM46 °FPassing clouds.2 mph93%29.95 "Hg2 mi
7:20 AM46 °FPassing clouds.No wind93%29.95 "Hg2 mi
6:50 AM45 °FPassing clouds.2 mph100%29.95 "Hg1 mi
6:20 AM45 °FFog.3 mph100%29.95 "Hg1 mi
5:50 AM45 °FFog.3 mph100%29.95 "Hg2 mi
5:20 AM45 °FFog.3 mph100%29.95 "Hg2 mi
4:50 AM45 °FFog.3 mph100%29.95 "Hg1 mi
4:20 AM45 °FFog.2 mph100%29.95 "Hg1 mi
3:50 AM45 °FOvercast.2 mph93%29.95 "Hg1 mi
3:20 AM45 °FFog.No wind100%29.95 "Hg1 mi
2:50 AM45 °FOvercast.2 mph100%29.95 "Hg2 mi
2:20 AM45 °FFog.2 mph93%29.95 "Hg2 mi
1:50 AM43 °FFog.3 mph100%29.95 "Hg2 mi
1:20 AM43 °FFog.3 mph93%29.95 "Hg2 mi
12:50 AM43 °FFog.No wind93%29.95 "Hg2 mi
12:20 AM43 °FFog.5 mph93%29.95 "Hg2 mi
11:50 PM
Sat, Oct 3
43 °FFog.3 mph100%29.95 "Hg2 mi
11:20 PM43 °FPassing clouds.2 mph100%29.95 "Hg1 mi
10:20 PM43 °FFog.No wind100%29.95 "Hg2 mi
9:50 PM43 °FPassing clouds.2 mph93%29.95 "Hg2 mi
9:20 PM43 °FFog.No wind100%29.95 "Hg2 mi
8:50 PM46 °FFog.No wind100%29.95 "Hg2 mi
8:20 PM46 °FFog.2 mph93%29.95 "Hg2 mi
7:50 PM46 °FFog.2 mph93%29.95 "Hg2 mi
7:20 PM48 °FFog.5 mph94%29.95 "Hg2 mi
6:50 PM50 °FPartly sunny.No wind94%29.95 "Hg2 mi
6:20 PM50 °FPartly sunny.No wind94%29.95 "Hg2 mi
5:50 PM50 °FFog.3 mph94%29.95 "Hg1 mi
5:20 PM50 °FFog.2 mph94%29.95 "Hg1 mi
4:50 PM50 °FFog.2 mph94%29.95 "Hg1 mi
4:20 PM50 °FFog.2 mph94%29.95 "Hg1 mi
3:50 PM50 °FFog.3 mph94%29.98 "Hg1 mi
3:20 PM50 °FFog.No wind94%29.98 "Hg1 mi
2:50 PM50 °FFog.2 mph94%29.98 "Hg1 mi
2:20 PM50 °FFog.No wind94%29.98 "Hg1 mi
1:50 PM48 °FFog.2 mph100%29.98 "Hg1 mi
1:20 PM48 °FFog.3 mph100%29.98 "Hg1 mi
12:50 PM48 °FFog.5 mph100%30.01 "Hg1 mi
12:20 PM48 °FFog.3 mph100%30.01 "Hg1 mi
11:50 AM48 °FFog.5 mph100%30.01 "Hg1 mi
11:20 AM48 °FFog.3 mph100%30.04 "Hg2 mi
10:50 AM48 °FFog.6 mph100%30.04 "Hg1 mi
10:20 AM46 °FFog.5 mph100%30.04 "Hg1 mi
Weather by CustomWeather, © 2015

See weather overviewHow to use our weather pages